Date,TemperatureHighF,TemperatureAvgF,TemperatureLowF,DewpointHighF,DewpointAvgF,DewpointLowF,HumidityHigh,HumidityAvg,HumidityLow,PressureMaxIn,PressureMinIn,WindSpeedMaxMPH,WindSpeedAvgMPH,GustSpeedMaxMPH,PrecipitationSumIn
2013-3-10,37,34,30,19,13,9,59,42,31,0.00,40.00,1,0,6,0.00
2013-3-11,48,38,30,25,18,14,60,47,28,0.00,40.00,1,0,5,0.00
2013-3-12,52,44,38,46,35,25,87,71,45,0.00,40.00,4,1,8,0.00
2013-3-13,48,39,29,44,19,2,86,47,27,0.00,40.00,0,0,7,0.00
2013-3-14,33,28,19,4,1,-6,33,31,29,0.00,40.00,0,0,10,0.00
2013-3-15,36,25,16,6,-1,-8,32,31,28,0.00,40.00,0,0,8,0.00
2013-3-16,36,31,24,6,3,-2,33,30,28,0.00,40.00,0,0,6,0.00
2013-3-17,34,27,19,5,0,-6,32,30,29,0.00,40.00,1,0,8,0.00
2013-3-18,35,25,13,9,-1,-10,48,32,29,0.00,40.00,1,0,5,0.00
2013-3-19,31,29,25,26,20,9,80,71,49,0.00,40.00,1,0,11,0.00
2013-3-20,34,28,21,16,7,-1,67,43,29,0.00,40.00,1,0,11,0.00
2013-3-21,34,27,20,14,6,-2,54,40,29,0.00,40.00,0,0,6,0.00
2013-3-22,37,30,23,12,4,-2,56,33,28,0.00,40.00,0,0,7,0.00
2013-3-23,39,31,23,9,4,-2,36,30,28,0.00,40.00,1,0,8,0.00
2013-3-24,42,34,26,13,6,-1,33,30,28,0.00,40.00,1,0,8,0.00
2013-3-25,39,33,27,13,9,4,44,36,31,0.00,40.00,2,0,10,0.00
2013-3-26,45,36,31,15,9,3,42,31,28,0.00,40.00,0,0,7,0.00
2013-3-27,48,38,25,17,9,0,35,30,28,0.00,40.00,0,0,9,0.00
2013-3-28,44,38,32,20,14,9,56,38,29,0.00,40.00,0,0,8,0.00
2013-3-29,52,41,30,20,15,10,50,35,27,0.00,40.00,0,0,8,0.00
2013-3-30,52,43,32,20,13,4,40,30,27,0.00,40.00,1,0,8,0.00
2013-3-31,57,42,25,23,12,0,44,30,27,0.00,40.00,1,0,7,0.00